Location: Buchdorf
(48.7842°N, 10.8275°E)
Time: 18:09:54
(UTC+00:00)

Cosmos 2181 Rocket - Pass Details

Date: 09 April 2020
Orbit: 952 x 1014 km, 82.9° (Epoch: 25 May)

Event Time Altitude Azimuth Distance (km) Brightness Sun altitude
Exits shadow 19:28:03 - 172° (S) 3,440 6.5 -14.3°
Reaches altitude 10° 19:29:58 10° 169° (S) 2,724 6.0 -14.5°
Maximum altitude 19:36:03 57° 93° (E) 1,129 4.0 -15.4°
Drops below altitude 10° 19:42:04 10° 16° (NNE) 2,705 6.5 -16.2°
Sets 19:44:36 0° 13° (NNE) 3,650 7.3 -16.6°
